Wind_Speed
9 9 10 11 12 13 13 16 21 23 23 23 25 28 29 31 32 31 32 32 31 30 31 30 29 28 27 28 27 24 22 22 23 24 22 22 23 25 24 22 22 24 22 19 19 18 17 17 16 14 14 14 13 14 13 12 11 10 9 10 10 10 9
9 9 10 11 12 13 14 19 23 24 25 24 24 27 29 30 33 32 32 33 32 31 32 31 30 30 29 29 29 26 23 22 23 24 23 23 23 24 23 22 22 23 22 20 19 17 16 17 18 17 16 15 14 14 14 13 12 10 8 9 10 10 10
8 9 11 12 12 12 13 17 21 23 26 25 24 27 29 31 33 34 33 34 32 31 32 32 31 30 29 29 30 27 24 23 23 23 23 24 24 23 23 21 22 22 22 21 20 18 17 17 18 18 18 17 16 15 15 14 13 11 10 10 10 11 11
8 8 11 13 13 13 14 17 21 23 25 28 27 28 31 32 33 34 34 34 33 32 32 32 31 31 30 29 30 29 26 24 24 24 23 23 22 22 23 21 21 21 22 23 22 20 19 19 18 17 19 19 17 16 16 15 14 13 12 12 11 11 12
6 5 6 7 8 9 12 16 21 24 25 29 29 28 31 33 32 33 34 34 34 33 33 32 31 31 31 29 29 30 27 25 25 24 22 23 22 21 22 22 22 22 21 22 23 22 21 21 18 17 19 19 17 16 16 16 15 14 14 14 12 11 12
7 6 5 5 5 4 9 16 23 26 26 29 30 29 31 33 32 32 33 33 33 32 31 31 30 30 31 30 28 29 28 26 26 25 23 23 23 22 23 23 22 23 22 21 21 21 22 22 21 19 19 19 17 16 16 15 15 14 14 15 14 13 12
5 6 6 8 9 6 8 14 23 27 28 30 31 29 30 33 33 32 32 32 33 32 30 30 30 30 30 30 27 28 29 27 26 26 24 23 23 23 23 23 23 22 21 22 22 21 22 22 21 20 20 20 19 17 16 15 15 14 14 14 14 14 13
1 4 5 7 10 9 7 12 20 25 26 27 28 28 29 31 32 32 31 32 32 32 32 31 30 29 30 30 28 27 29 28 27 27 26 25 25 24 24 24 23 22 22 23 23 22 23 22 21 21 21 21 20 19 17 16 16 15 15 15 15 15 14
4 2 6 7 8 8 8 12 18 23 25 25 27 28 28 29 31 32 32 32 32 32 32 31 31 30 30 30 28 28 28 28 28 28 27 27 27 26 26 25 24 23 23 23 23 22 23 22 21 21 20 20 20 20 19 18 17 17 16 17 16 16 14
6 3 6 7 7 7 9 12 16 18 21 24 26 27 28 29 29 31 32 31 32 33 33 31 30 30 30 30 29 28 28 29 29 29 29 29 28 28 27 26 25 24 24 24 23 23 23 22 22 22 20 20 20 19 19 19 19 18 18 19 18 17 16
6 4 2 4 1 1 2 8 12 14 18 22 25 27 29 30 29 30 32 33 33 33 33 32 31 30 30 31 30 29 29 30 31 30 30 30 29 28 27 26 25 25 24 24 23 24 24 23 23 23 22 22 22 21 20 19 20 20 21 22 21 20 18
5 5 4 5 3 2 4 3 6 13 18 20 25 28 29 30 30 30 31 32 32 33 32 30 29 30 30 31 31 30 30 31 32 32 32 31 29 28 27 26 25 25 25 24 24 25 25 25 26 26 24 23 23 23 22 21 20 20 22 24 23 21 19
5 4 3 2 1 3 2 3 5 11 18 20 23 27 29 30 29 29 31 31 31 32 33 33 32 31 31 32 33 32 31 31 32 32 32 31 30 29 28 28 27 27 26 26 25 25 26 26 27 28 27 25 23 22 21 19 17 15 16 19 20 19 17
6 5 4 4 3 3 2 1 4 6 14 21 23 24 27 30 31 31 32 33 33 35 36 37 37 35 33 32 33 34 33 32 33 33 32 31 30 30 29 29 28 28 28 27 27 26 26 25 27 29 29 26 24 22 19 17 14 12 12 15 16 16 16
8 7 5 4 4 4 6 4 4 5 5 11 22 28 28 27 28 30 32 33 34 36 38 39 37 35 34 33 33 35 35 33 32 33 32 32 31 29 29 29 29 29 29 29 29 29 27 25 25 28 29 28 25 22 19 18 16 15 15 15 16 16 17
7 7 5 6 5 4 5 5 3 4 8 9 3 19 28 29 29 30 31 34 35 35 37 39 37 33 33 34 35 37 36 34 33 32 33 33 32 30 28 28 28 28 29 29 30 31 29 25 24 26 28 27 25 22 20 20 20 20 20 19 19 19 20
8 7 5 5 6 5 5 6 6 5 9 12 15 7 7 20 30 35 33 33 35 36 36 38 36 34 32 34 37 37 36 34 32 31 32 33 32 32 31 28 25 26 28 29 29 30 29 25 24 26 26 26 24 23 22 21 21 21 21 21 20 21 22
8 8 6 5 4 3 3 3 4 4 8 9 1 9 12 6 9 25 34 37 37 36 35 36 36 35 33 34 36 37 36 35 32 30 31 31 31 32 32 27 23 22 24 25 25 27 27 25 24 25 24 24 23 23 23 23 22 21 20 19 19 19 21
6 6 6 3 2 1 1 2 4 3 4 10 13 12 6 5 8 5 7 22 33 35 35 34 34 34 34 34 35 37 37 35 32 29 28 28 28 29 30 27 24 21 21 21 22 24 25 24 24 23 23 22 22 22 23 23 22 21 20 18 17 17 18
3 4 6 4 2 2 3 1 4 6 4 6 10 13 14 13 6 6 9 2 13 24 31 33 32 32 34 35 36 37 37 36 34 31 27 26 25 26 26 26 23 21 20 21 22 22 22 22 22 21 22 22 21 21 20 21 22 21 20 19 18 18 16
3 4 6 4 2 3 4 4 2 3 3 3 7 7 7 10 12 11 9 7 7 10 15 24 29 31 31 34 35 37 36 34 33 30 28 26 25 24 24 23 21 20 19 19 19 19 20 20 20 20 21 21 21 20 20 20 20 20 19 19 18 18 17
3 4 5 5 3 2 4 5 4 4 5 2 4 5 5 6 8 12 17 17 17 17 17 18 23 27 29 31 33 34 35 34 32 31 28 26 24 22 21 21 19 18 17 17 17 18 18 18 19 20 20 20 20 20 20 20 19 19 18 17 17 17 16
4 5 5 6 5 5 7 7 5 3 4 5 7 6 5 7 8 12 16 16 17 20 19 16 13 15 19 23 25 26 26 25 24 22 18 15 12 9 10 14 17 17 18 17 17 17 17 17 17 17 17 18 19 20 20 19 18 18 17 16 15 15 14
7 7 6 6 7 8 11 11 9 6 4 6 8 7 7 8 9 10 13 13 10 7 4 4 5 7 6 8 12 14 13 14 15 14 11 11 9 9 11 13 15 15 15 15 15 15 16 16 15 15 16 16 17 18 18 18 17 16 15 14 14 14 13
7 8 8 7 9 11 12 12 12 10 6 7 8 9 9 10 9 9 9 9 7 4 1 1 4 6 5 4 6 9 12 13 15 15 13 13 14 15 16 14 12 11 11 11 12 13 14 15 14 15 15 16 15 16 17 17 16 15 14 13 13 13 13
7 8 8 9 11 13 13 13 13 11 8 6 7 9 11 11 10 9 8 6 4 3 4 6 7 9 9 8 7 9 13 12 13 14 14 12 12 13 13 12 10 9 8 8 9 11 12 12 13 13 14 15 15 15 15 14 14 13 13 13 13 13 13
10 10 9 9 11 13 14 14 13 11 9 6 5 7 10 9 7 7 7 6 4 4 3 7 7 9 12 10 8 10 13 13 12 13 13 12 11 11 11 11 9 8 8 8 8 9 9 10 11 13 13 13 13 12 11 10 9 9 10 11 11 12 12
9 10 9 10 12 13 13 13 12 12 12 9 6 5 5 4 3 4 4 4 3 3 2 4 7 12 15 15 13 13 14 14 12 11 11 11 11 11 10 10 9 9 10 9 8 8 9 8 10 14 15 14 13 12 10 8 6 5 5 6 7 9 10
7 8 9 10 11 12 13 13 12 13 15 14 12 9 6 6 5 5 6 7 5 5 6 6 9 13 15 17 17 15 14 15 14 12 10 9 10 9 8 7 7 8 9 9 9 10 10 9 10 15 19 18 15 12 10 8 6 4 3 3 3 5 7
7 7 8 10 11 12 14 14 14 15 16 16 16 15 13 11 10 9 9 9 8 9 11 11 13 16 18 18 18 17 17 16 15 14 11 9 9 9 7 5 4 6 7 7 9 11 12 11 12 14 16 19 18 14 11 9 7 5 4 3 3 3 3
5 6 7 9 11 13 14 16 16 17 17 16 16 16 15 15 14 12 10 8 8 10 12 14 16 19 20 19 19 19 19 18 17 16 14 12 11 10 9 8 6 5 4 3 4 6 8 11 15 14 12 16 17 13 10 9 8 6 6 5 4 3 2
6 7 8 9 10 11 13 15 17 18 18 17 16 16 16 16 16 14 12 11 11 11 13 15 17 19 20 20 20 19 19 19 19 18 16 15 14 12 11 10 9 9 9 7 7 9 10 14 17 15 12 15 16 12 9 9 9 8 7 6 5 4 3
7 10 11 11 11 12 13 14 15 16 17 16 15 16 16 16 16 15 15 15 14 14 14 16 18 19 19 20 19 19 18 19 19 18 17 15 13 12 11 10 11 13 14 13 13 14 15 16 17 16 15 14 13 11 10 9 9 9 8 7 6 4 4
8 10 11 12 12 13 13 14 14 16 16 15 15 16 16 15 14 13 14 15 16 17 18 18 19 19 20 20 20 19 19 19 19 19 18 16 15 14 13 14 13 14 14 13 12 11 12 13 13 13 14 13 12 11 11 10 9 10 9 9 9 7 6
9 11 11 11 12 13 13 14 15 17 17 16 17 18 18 17 15 13 13 13 14 16 18 19 20 20 21 22 21 20 20 20 20 20 20 19 17 16 16 16 15 14 14 12 10 8 8 9 10 10 12 12 12 11 11 10 9 9 9 9 9 9 8
9 10 11 13 15 16 16 15 15 16 16 16 18 19 19 19 18 17 16 15 15 16 19 20 20 20 20 20 20 20 20 20 21 20 20 20 19 19 19 19 18 17 17 16 15 13 12 12 13 12 11 12 12 11 10 9 8 8 7 7 7 6 6
11 11 13 16 18 18 18 17 16 16 15 15 15 15 15 15 15 16 16 17 18 19 21 21 22 21 20 19 19 19 19 21 22 22 22 22 22 22 22 21 20 20 19 18 18 18 17 16 16 14 12 12 12 10 9 8 7 6 6 5 4 3 3
14 14 14 15 17 18 17 17 17 16 15 14 13 13 14 14 14 14 15 16 17 19 21 22 22 21 20 19 19 19 20 21 22 22 23 22 22 22 21 21 20 18 17 16 15 15 15 14 13 12 11 10 8 7 7 6 5 4 3 2 1 1 2
Wind_Direction
169 174 171 175 176 173 176 177 176 178 177 173 175 176 173 173 175 177 180 181 183 186 189 193 196 198 198 194 189 189 193 195 196 195 194 195 195 192 193 196 196 198 198 198 199 203 207 207 206 206 208 210 212 214 217 221 225 228 228 229 229 231 237
170 173 171 175 179 176 177 177 176 177 179 176 174 175 174 174 176 177 180 182 185 187 189 192 195 197 198 196 194 194 196 196 195 194 194 195 194 194 196 198 198 199 203 205 205 205 208 207 206 209 213 214 216 220 221 222 223 224 224 225 223 223 229
173 174 173 175 179 178 176 177 177 178 180 179 174 175 177 176 178 179 180 182 184 188 189 191 194 195 195 196 197 198 198 197 195 195 195 195 195 196 197 199 201 203 205 205 206 207 209 209 210 213 216 216 216 219 220 221 222 222 221 223 223 222 227
175 171 174 177 177 177 176 177 180 180 181 183 178 175 178 180 180 181 182 183 184 187 189 191 194 194 194 196 198 200 199 197 197 197 198 199 199 199 199 201 204 207 208 208 207 209 209 210 213 215 216 217 217 219 220 223 225 224 222 223 227 229 231
152 133 149 162 166 178 181 179 182 182 182 184 180 176 178 180 181 182 183 184 186 188 191 192 194 193 195 197 199 201 200 198 198 199 201 202 200 200 201 204 206 210 213 210 208 210 211 211 213 212 214 216 216 217 221 224 226 226 223 223 228 233 235
141 119 119 129 136 196 198 183 182 184 182 183 181 178 177 178 181 182 184 185 186 189 191 192 194 195 195 197 199 201 201 201 201 200 201 201 200 202 204 206 208 210 212 208 207 210 210 211 213 213 215 217 216 217 220 223 224 223 222 223 226 231 238
150 136 142 156 163 191 216 193 185 185 185 184 182 178 176 177 181 182 183 185 185 187 189 191 194 195 197 198 199 201 202 202 202 202 203 201 202 206 208 208 209 211 211 209 210 212 211 212 215 216 218 219 219 221 223 224 224 221 221 226 230 233 239
230 158 163 179 175 177 203 199 189 186 186 184 182 179 176 176 179 181 182 184 185 186 188 190 193 196 198 198 199 201 203 203 202 203 205 205 206 209 210 210 211 211 212 213 215 216 216 217 218 218 217 216 217 220 222 224 225 224 225 230 233 234 238
319 198 177 187 185 179 192 200 193 187 184 184 182 180 177 176 178 180 182 183 184 186 189 191 193 195 197 198 200 202 203 204 203 203 205 205 206 209 210 211 211 211 212 214 217 218 217 218 220 219 217 215 216 219 220 223 226 228 231 232 232 233 235
331 305 187 185 197 186 176 190 197 189 183 183 183 181 179 176 177 179 181 182 184 186 189 191 193 194 196 197 200 202 204 205 205 204 205 206 207 210 211 211 212 214 214 213 215 218 218 219 219 218 216 216 218 220 222 222 224 229 232 232 233 234 236
349 346 104 130 214 288 173 186 192 190 185 182 182 183 181 179 178 179 181 182 184 186 187 189 191 194 196 198 199 201 203 205 206 205 206 208 209 212 212 211 213 217 217 215 216 218 218 219 217 215 215 218 221 224 224 223 225 230 234 235 235 237 240
10 15 65 98 108 12 330 282 207 193 188 184 183 184 184 182 180 179 181 183 183 184 184 185 188 191 195 198 199 201 204 205 206 207 208 210 211 212 212 211 213 215 215 216 219 220 219 219 218 217 218 220 222 224 227 230 232 236 241 240 236 235 236
23 30 43 51 124 170 196 299 274 215 193 183 184 185 183 183 181 177 177 178 180 182 183 184 187 189 193 198 200 202 205 206 206 207 208 210 212 212 211 212 214 215 214 213 216 219 221 222 222 222 221 220 220 223 227 232 232 234 238 235 229 226 228
25 27 49 51 9 323 291 321 312 250 198 178 173 178 180 180 179 175 173 175 177 181 185 189 191 189 190 196 201 203 205 207 206 207 209 210 212 213 214 217 218 219 218 215 213 216 220 223 224 222 220 218 219 222 224 225 226 228 228 225 223 225 230
35 23 25 55 60 3 335 333 359 341 274 186 167 168 173 174 172 170 169 172 176 181 187 191 193 191 189 194 201 204 206 207 207 208 210 211 212 213 215 219 222 223 223 219 215 215 219 222 222 218 216 216 217 219 221 224 227 230 233 234 236 241 243
51 50 30 19 40 45 358 338 4 30 355 341 175 168 169 168 167 167 168 171 176 181 187 191 193 193 191 194 200 204 205 206 208 209 211 212 213 212 212 218 224 226 225 222 217 216 218 219 215 211 209 210 212 217 223 229 231 231 232 235 240 246 244
49 58 60 40 29 30 21 0 353 44 55 17 349 334 174 167 166 168 171 173 177 183 188 191 194 195 196 197 199 201 201 203 207 209 210 211 213 213 211 214 220 222 221 220 217 215 215 213 210 207 208 211 216 221 226 229 229 230 231 234 239 245 239
58 56 58 55 43 32 46 49 2 21 87 107 35 329 337 329 172 169 172 176 181 186 189 192 195 198 201 201 200 199 198 199 202 205 207 210 212 211 208 206 207 207 209 211 210 209 207 206 207 208 211 216 219 222 224 226 228 229 231 234 237 237 231
67 75 77 61 30 337 300 138 153 177 133 141 167 181 200 291 328 339 182 179 182 185 187 192 196 199 203 203 200 198 197 198 199 199 201 204 206 205 201 199 198 195 195 197 198 199 201 203 207 210 212 215 217 220 223 225 229 231 231 231 226 221 220
81 93 91 69 15 319 302 325 143 168 164 153 169 173 171 178 200 320 336 280 190 188 188 191 195 198 200 199 197 197 196 198 199 199 198 197 197 196 194 195 196 193 190 190 192 196 201 206 211 214 217 220 222 224 225 226 229 230 230 228 224 221 221
144 118 99 88 39 330 312 331 36 86 88 150 178 171 158 166 181 197 209 222 236 227 205 194 192 194 196 195 196 197 196 196 197 197 197 196 194 193 193 194 196 196 195 195 196 200 205 209 215 218 221 223 224 225 226 227 227 228 228 229 228 228 227
152 116 104 104 85 2 348 353 354 25 49 91 172 175 162 157 174 192 195 198 209 223 230 217 201 195 195 195 196 197 197 197 197 197 198 196 194 193 190 191 195 199 202 203 204 207 210 212 216 219 220 220 220 220 222 222 223 223 224 227 226 226 227
90 82 86 92 83 49 41 40 19 18 64 113 143 156 157 149 166 195 206 209 209 213 226 237 224 209 205 201 200 201 199 193 187 185 182 172 169 175 181 188 197 201 203 205 205 208 212 214 216 218 218 217 216 216 217 218 219 220 221 221 221 224 225
68 63 65 79 79 59 47 42 39 50 87 121 126 136 151 152 162 189 205 218 222 215 232 273 265 258 248 218 207 201 190 177 168 164 150 136 149 187 200 199 202 203 202 204 207 210 214 217 217 217 218 217 216 216 217 218 218 217 218 217 219 221 221
74 63 54 57 69 65 54 45 46 57 87 118 119 127 144 153 162 178 196 217 234 249 316 342 261 257 258 249 213 178 169 180 186 179 167 161 175 193 199 198 199 200 201 206 214 218 220 219 217 216 215 215 216 218 221 222 223 221 218 217 220 222 223
71 59 45 43 56 61 59 55 52 55 64 87 119 139 144 144 152 163 177 194 205 220 225 229 242 236 224 234 234 190 172 176 177 165 160 168 176 180 185 190 192 195 203 211 215 218 221 222 219 214 212 212 213 216 219 222 226 226 222 221 224 229 231
62 59 48 44 51 58 60 56 56 61 64 70 111 148 151 146 144 146 150 151 123 95 172 205 205 192 187 191 199 185 166 154 153 154 156 169 179 180 186 189 181 178 189 201 207 206 206 211 211 203 197 196 196 198 201 204 210 216 217 221 227 231 234
51 50 47 47 50 56 61 57 55 59 63 70 101 147 165 154 135 122 113 106 82 70 108 158 150 151 157 153 151 157 150 137 138 146 151 164 177 184 189 186 176 177 184 186 186 185 184 194 198 188 179 175 175 173 170 168 174 188 203 221 236 241 242
43 38 40 47 52 59 64 61 56 59 62 68 85 107 121 110 92 82 77 70 67 84 95 103 120 129 128 125 126 130 126 121 124 129 137 156 169 172 175 177 185 202 206 201 196 193 196 202 193 178 169 163 160 158 158 159 161 168 186 214 239 250 254
51 49 50 56 61 66 71 70 65 64 65 67 78 93 103 103 90 73 69 72 79 95 100 96 100 103 100 98 103 105 103 106 112 119 129 140 146 145 140 136 163 200 212 219 217 213 213 204 186 173 161 151 148 150 156 163 163 162 176 198 209 221 254
59 66 73 75 72 69 72 76 75 72 68 66 72 82 89 95 93 82 76 87 97 102 103 98 94 95 95 96 98 100 105 109 110 114 121 124 121 120 120 125 142 161 172 198 208 199 191 175 168 169 158 141 136 134 136 142 143 146 159 174 181 176 194
71 84 92 86 78 74 74 76 76 75 71 66 68 74 78 85 91 88 88 104 112 108 105 103 99 95 96 99 101 104 109 111 110 111 112 111 111 115 120 125 124 113 104 101 107 115 120 131 142 149 142 127 121 117 116 119 122 130 140 146 149 151 165
84 86 90 90 87 84 82 80 78 77 75 70 68 73 76 81 86 89 95 104 110 112 108 103 99 97 96 99 101 104 107 108 108 110 111 111 115 119 117 114 109 102 98 97 100 105 113 121 130 135 130 122 119 120 118 111 108 110 114 119 126 131 137
99 89 89 96 100 95 89 85 84 82 79 76 75 78 80 80 81 87 96 100 105 110 107 100 98 98 98 99 100 101 104 107 109 111 111 112 113 111 103 97 97 95 92 92 96 106 118 126 129 132 132 129 128 130 126 116 109 107 107 108 107 106 110
104 96 92 93 98 102 102 97 92 87 82 81 83 84 82 80 79 81 88 94 100 104 102 98 98 99 100 103 104 105 107 108 109 109 109 109 108 102 90 83 84 87 85 84 87 96 112 121 119 121 128 128 127 128 125 120 116 113 111 108 102 98 97
106 96 91 88 91 98 103 103 101 98 93 90 90 88 86 84 80 77 79 87 94 97 99 100 100 99 99 101 102 105 106 106 105 105 105 105 104 100 91 83 82 85 85 83 83 85 89 94 97 100 105 108 109 111 111 110 110 107 102 96 91 89 86
112 102 94 92 92 94 99 103 104 104 103 99 93 90 88 85 81 77 78 84 89 93 97 100 99 96 95 97 100 103 104 104 104 104 103 104 104 101 98 94 89 85 85 84 83 83 84 85 87 89 89 91 96 101 103 103 100 94 86 80 77 78 78
117 111 104 99 97 97 100 105 107 107 106 103 96 92 89 88 88 87 85 85 87 91 93 94 95 95 96 99 102 104 105 106 107 108 107 107 107 104 102 100 95 90 86 84 82 82 82 84 87 88 87 87 90 95 102 105 103 99 95 88 86 103 117
Height
770 770 772 774 775 776 777 779 781 783 786 790 793 795 797 800 802 804 807 809 811 813 815 817 819 821 822 823 825 826 828 829 830 831 832 833 834 835 836 837 838 839 840 841 842 843 844 845 846 846 847 848 848 849 849 850 850 851 851 851 851 852 852
768 769 770 772 773 775 775 777 779 781 784 787 790 793 796 798 800 802 805 807 809 811 813 815 817 819 821 822 824 825 827 828 829 830 831 832 833 834 835 836 837 838 839 840 841 842 843 844 845 846 846 847 848 848 849 849 850 850 851 851 851 851 851
766 767 767 769 770 772 774 776 778 779 781 784 787 791 793 796 798 800 802 805 808 810 812 814 816 818 819 821 823 824 826 827 828 829 830 831 832 833 835 836 836 838 838 839 841 841 842 843 844 845 846 846 847 848 848 849 849 850 850 851 851 851 851
765 764 764 765 767 769 771 773 776 778 779 781 784 787 791 794 796 798 801 803 806 808 810 812 814 816 818 820 822 823 824 826 827 828 829 830 831 833 834 835 835 836 837 838 839 840 841 842 843 844 845 845 846 847 847 848 848 849 850 850 850 850 850
764 764 764 765 767 769 770 771 773 775 777 779 781 785 788 792 795 797 799 801 804 806 808 811 813 815 817 819 820 822 823 825 826 827 828 829 830 831 832 833 834 835 836 837 838 839 840 841 842 842 843 844 845 845 846 847 847 848 848 849 849 849 849
762 764 765 765 767 769 769 769 771 773 775 777 778 783 786 789 793 795 798 800 802 806 808 810 813 814 816 818 819 821 822 824 825 826 827 828 829 830 831 832 833 833 834 835 836 837 838 839 840 841 842 843 844 844 845 846 846 847 847 848 848 848 848
762 764 764 762 763 766 768 768 768 770 773 775 776 780 783 787 790 793 796 799 801 804 806 809 811 813 814 816 818 820 821 822 823 824 826 827 828 829 830 831 831 832 833 834 835 836 837 838 839 839 841 841 842 843 844 845 845 846 846 846 847 847 847
763 764 763 761 760 763 765 766 767 769 771 774 776 778 781 784 788 791 794 797 799 802 804 807 809 811 813 815 817 818 819 820 822 823 824 825 826 827 828 829 830 831 832 833 833 834 835 836 837 838 839 840 841 842 843 843 844 844 845 845 845 845 845
762 762 762 761 760 760 762 764 766 767 769 772 774 776 779 782 785 788 791 794 797 800 802 805 807 809 811 814 815 816 818 819 820 821 822 823 824 825 826 827 828 829 830 831 832 833 834 834 835 836 837 838 839 840 841 841 842 842 843 843 843 843 844
763 763 761 761 761 759 760 762 765 766 767 770 772 775 777 780 783 786 789 792 795 797 800 803 805 808 810 812 814 815 817 818 819 820 820 821 822 823 824 825 826 827 828 829 830 831 832 833 833 835 836 837 837 838 839 839 840 840 840 841 841 842 842
765 764 763 764 764 763 762 762 763 765 766 768 770 772 775 777 781 784 786 789 791 794 797 800 803 805 807 809 812 813 815 816 817 818 818 819 820 820 822 823 824 825 826 827 828 829 830 831 831 832 833 834 835 836 836 837 837 838 838 838 839 840 841
768 766 765 765 765 765 766 765 763 763 764 766 768 770 772 774 777 780 783 786 789 792 795 797 799 802 804 807 809 811 813 814 815 816 816 817 818 818 820 820 821 822 823 824 825 826 827 828 829 830 831 832 832 833 834 835 835 836 836 836 837 838 839
772 770 769 768 766 764 764 765 765 763 762 764 765 767 770 772 774 777 780 784 787 789 792 794 796 797 800 803 806 808 810 811 812 814 815 815 816 817 818 818 819 820 821 822 823 824 825 826 827 828 829 830 831 832 833 834 835 835 835 835 836 837 838
773 773 772 771 771 769 766 765 766 764 762 761 763 765 767 769 771 774 777 780 783 786 788 790 792 792 795 799 802 805 806 808 810 811 813 814 815 816 816 817 818 818 819 820 820 821 822 823 824 825 827 828 830 831 832 833 834 834 835 835 836 836 836
774 774 774 773 773 772 771 769 766 765 765 762 760 762 764 767 769 771 774 778 780 783 784 787 789 790 791 794 798 801 803 806 808 809 811 812 812 814 814 815 816 816 816 817 818 819 819 820 821 822 824 826 828 829 830 831 831 832 833 833 834 834 835
776 776 776 775 774 772 772 770 767 767 769 769 766 762 761 763 765 768 772 774 777 779 781 783 786 788 789 791 794 797 800 803 805 807 808 809 809 810 811 812 813 814 814 815 815 816 817 818 819 821 822 824 826 827 828 828 828 828 829 830 831 832 832
776 777 776 775 774 772 771 771 770 769 770 773 774 770 765 763 762 764 767 770 773 775 778 780 783 786 787 788 790 794 797 799 801 803 804 805 806 807 808 809 810 811 812 812 813 814 815 816 818 819 821 822 823 824 825 825 825 825 826 827 828 829 829
775 777 777 776 774 771 771 772 772 771 770 771 772 773 772 770 766 764 764 765 768 771 774 777 780 783 785 786 788 791 793 795 797 798 800 801 802 804 805 806 807 807 809 809 810 812 813 814 816 817 819 820 821 822 822 822 823 823 824 824 825 826 826
775 774 774 776 775 772 771 769 768 769 769 769 768 769 771 773 774 771 768 766 767 769 772 775 778 780 782 784 786 788 790 792 793 794 796 797 799 801 802 803 804 805 806 807 809 810 811 812 814 815 816 817 818 819 820 820 821 821 822 822 823 824 824
774 772 770 772 774 774 772 769 766 765 767 768 768 767 768 771 774 776 776 775 774 772 772 773 776 778 779 781 783 785 787 789 790 792 794 795 797 798 799 801 802 804 805 806 807 809 810 811 812 813 814 815 816 817 817 818 819 819 820 821 821 822 822
772 769 767 769 772 773 772 770 768 766 765 767 767 767 769 772 773 774 776 778 780 780 777 775 774 775 777 778 780 782 783 785 787 789 791 793 795 797 798 800 801 803 804 805 806 807 808 809 810 811 812 813 814 815 815 816 816 817 818 819 820 820 821
769 766 766 768 771 773 772 770 770 768 766 766 767 768 770 772 773 773 773 774 776 779 780 778 775 773 774 776 777 779 780 782 784 786 789 791 793 795 796 798 800 802 803 804 805 806 807 807 808 809 810 811 812 813 813 814 814 815 817 818 818 819 819
765 764 765 767 771 772 771 771 770 769 768 768 768 770 771 772 773 773 772 772 773 775 778 779 778 776 776 776 777 778 779 780 782 784 787 790 794 797 799 799 800 800 801 802 804 804 805 806 807 808 809 809 810 811 812 813 813 814 815 816 817 818 818
764 765 767 769 772 772 770 770 769 769 769 769 769 770 771 772 772 772 772 773 774 777 780 781 781 781 781 780 780 780 781 782 784 786 788 791 795 799 800 800 800 800 800 802 803 804 805 806 806 807 808 809 810 810 811 812 812 813 814 815 816 816 817
765 767 769 771 772 772 770 769 768 768 768 769 769 770 770 770 771 772 773 773 775 778 781 782 782 782 783 783 782 780 782 784 785 787 788 790 792 794 796 798 799 800 800 802 802 803 804 805 806 807 807 808 809 809 810 811 812 813 814 815 816 816 816
767 768 770 771 772 771 770 769 768 768 768 769 770 770 770 771 771 772 773 774 776 778 779 780 780 779 781 783 782 782 784 785 785 787 789 791 792 793 796 798 799 800 800 801 802 802 803 804 805 805 806 806 807 807 809 810 812 813 814 814 815 815 815
769 770 771 772 772 770 769 769 768 769 769 770 771 771 772 772 771 771 772 773 775 776 777 777 777 777 778 780 781 783 784 784 785 788 791 793 794 795 797 799 799 800 800 800 801 802 803 804 804 804 805 805 806 807 808 810 811 812 813 813 814 814 815
772 772 773 773 772 771 770 769 768 770 770 770 771 772 773 772 771 771 771 772 774 775 775 776 777 777 778 778 779 782 783 783 786 788 790 792 793 795 798 798 799 800 800 800 801 801 802 804 804 803 803 804 805 806 807 809 810 811 812 813 814 814 814
775 775 774 774 774 773 771 770 770 770 771 771 771 772 773 773 773 772 773 774 774 775 776 777 777 778 778 777 779 781 783 784 786 788 791 792 793 794 795 796 797 800 801 801 800 800 801 802 803 803 802 802 803 805 806 807 809 810 811 813 814 815 815
777 777 776 776 776 775 774 773 772 772 772 773 773 774 774 775 775 775 776 776 776 777 777 778 779 779 779 779 780 781 783 785 787 790 792 794 793 793 793 794 797 799 800 800 799 800 801 801 802 803 803 801 801 803 805 806 807 808 810 812 813 815 815
780 780 779 778 778 777 776 775 774 774 775 775 776 777 777 778 778 778 778 778 779 779 778 779 780 780 780 782 783 784 785 787 790 792 793 794 794 793 794 796 798 799 798 798 798 799 800 800 801 803 804 802 801 804 806 806 806 807 808 810 811 812 814
783 782 781 780 780 779 778 777 777 777 777 778 779 780 780 780 780 780 781 780 780 780 780 780 781 781 783 784 785 786 788 789 791 793 794 795 795 796 796 797 798 797 797 797 797 797 799 800 800 803 804 802 802 805 807 807 807 808 808 809 810 812 814
785 784 783 782 782 781 781 780 779 780 780 781 782 782 782 783 782 783 783 782 782 782 782 782 782 784 785 785 786 787 789 790 792 794 795 796 796 796 797 797 797 797 797 797 798 798 799 800 801 803 803 803 804 807 808 808 809 809 809 809 810 813 815
785 784 784 784 783 783 782 782 782 782 782 783 784 784 784 784 784 785 784 784 784 784 784 785 785 786 787 788 788 789 791 793 794 795 795 796 796 796 797 797 797 798 798 799 800 800 801 802 803 803 804 804 806 808 809 810 810 810 811 811 812 814 815
786 786 785 785 784 784 784 783 784 783 784 786 786 785 786 785 786 786 785 786 787 787 787 788 789 789 790 790 791 792 793 794 795 795 795 796 796 796 797 797 798 799 800 801 802 802 802 803 803 805 805 806 807 809 809 810 811 812 812 813 813 814 815
787 787 786 786 786 785 785 785 785 785 787 788 787 787 788 788 788 788 788 788 788 788 788 790 791 792 793 792 793 794 795 795 796 796 796 796 796 796 797 799 800 801 802 803 803 804 804 804 805 806 807 807 808 809 810 811 812 813 813 813 813 814 815
789 788 788 787 787 786 786 786 786 787 788 789 789 790 790 790 790 790 790 791 791 790 790 791 792 793 794 794 795 796 796 796 797 797 797 798 798 798 799 800 802 802 803 804 805 805 806 806 807 808 809 809 810 810 811 812 813 813 813 813 814 815 815
790 789 789 789 788 788 788 788 788 789 789 790 791 791 791 792 792 793 793 793 793 793 793 793 793 795 796 797 798 799 799 799 799 799 800 801 801 801 802 802 803 804 805 806 806 807 808 808 809 810 810 811 811 812 812 813 813 813 814 814 815 816 816